DAL1278 KATL-KSTL

Flight info

Callsign DAL1278
Flight time 1h 12m
Altitude 32000
Route PENCL2 JAACE BNA BOOSH3
Aircraft A320/M-SDE3FGHIRWY/LB1

Departure

Time 2026-05-08 01:45
Airport Hartsfield Jackson Atlanta International Airport (KATL)

Arrival

Time 2026-05-08 02:58
Airport St. Louis Lambert International Airport (KSTL)
Time Latitude Longitude Altitude Speed Heading
2026-05-08 01:20 33.64191 -84.42891 1036 ft 0 kts 269°
2026-05-08 01:34 33.64191 -84.42886 1035 ft 3 kts 270°
2026-05-08 01:35 33.64189 -84.42854 1035 ft 4 kts 282°
2026-05-08 01:35 33.64180 -84.42825 1035 ft 4 kts 308°
2026-05-08 01:35 33.64162 -84.42808 1035 ft 2 kts 358°
2026-05-08 01:35 33.64159 -84.42808 1035 ft 0 kts 360°
2026-05-08 01:38 33.64161 -84.42808 1035 ft 2 kts 360°
2026-05-08 01:39 33.64220 -84.42809 1035 ft 11 kts 360°
2026-05-08 01:39 33.64299 -84.42809 1035 ft 12 kts 360°
2026-05-08 01:39 33.64353 -84.42809 1035 ft 7 kts 360°
2026-05-08 01:39 33.64356 -84.42809 1035 ft 0 kts 360°
2026-05-08 01:40 33.64366 -84.42809 1035 ft 7 kts 360°
2026-05-08 01:40 33.64413 -84.42809 1035 ft 11 kts
2026-05-08 01:41 33.64465 -84.42751 1035 ft 11 kts 75°
2026-05-08 01:41 33.64470 -84.42617 1035 ft 21 kts 89°
2026-05-08 01:41 33.64469 -84.42437 1035 ft 22 kts 90°
2026-05-08 01:41 33.64481 -84.42249 1035 ft 23 kts 68°
2026-05-08 01:42 33.64542 -84.42071 1035 ft 23 kts 83°
2026-05-08 01:42 33.64544 -84.41871 1035 ft 24 kts 89°
2026-05-08 01:42 33.64544 -84.41665 1036 ft 25 kts 91°
2026-05-08 01:42 33.64543 -84.41451 1036 ft 26 kts 90°
2026-05-08 01:43 33.64544 -84.41229 1036 ft 27 kts 89°
2026-05-08 01:43 33.64544 -84.41002 1035 ft 28 kts 90°
2026-05-08 01:43 33.64547 -84.40841 1035 ft 14 kts 79°
2026-05-08 01:43 33.64570 -84.40735 1035 ft 12 kts 86°
2026-05-08 01:44 33.64571 -84.40638 1034 ft 11 kts 88°
2026-05-08 01:44 33.64613 -84.40581 1033 ft 9 kts 26°
2026-05-08 01:44 33.64673 -84.40600 1033 ft 10 kts 301°
2026-05-08 01:44 33.64678 -84.40730 1033 ft 32 kts 269°
2026-05-08 01:45 33.64680 -84.41293 1037 ft 100 kts 269°
2026-05-08 01:45 33.64682 -84.42360 1036 ft 154 kts 270°
2026-05-08 01:45 33.64676 -84.43677 1536 ft 157 kts 272°
2026-05-08 01:45 33.64655 -84.44987 2228 ft 157 kts 272°
2026-05-08 01:46 33.64799 -84.46269 2849 ft 157 kts 294°
2026-05-08 01:46 33.65268 -84.47534 3175 ft 177 kts 296°
2026-05-08 01:46 33.65811 -84.48963 3434 ft 199 kts 295°
2026-05-08 01:46 33.66422 -84.50570 3689 ft 224 kts 295°
2026-05-08 01:47 33.67102 -84.52360 4111 ft 245 kts 295°
2026-05-08 01:47 33.67819 -84.54256 4910 ft 251 kts 294°
2026-05-08 01:47 33.68545 -84.56172 5794 ft 253 kts 294°
2026-05-08 01:48 33.71396 -84.58604 7529 ft 273 kts 341°
2026-05-08 01:48 33.73263 -84.59068 8346 ft 275 kts 341°
2026-05-08 01:48 33.75151 -84.59525 9173 ft 278 kts 340°
2026-05-08 01:48 33.77055 -84.59976 9999 ft 280 kts 340°
2026-05-08 01:49 33.79001 -84.60436 10482 ft 295 kts 339°
2026-05-08 01:49 33.81092 -84.60941 10683 ft 318 kts 340°
2026-05-08 01:49 33.83289 -84.61464 11101 ft 331 kts 340°
2026-05-08 01:49 33.85571 -84.61993 11791 ft 335 kts 340°
2026-05-08 01:50 33.87873 -84.62518 12530 ft 338 kts 340°
2026-05-08 01:50 33.90187 -84.63047 13283 ft 340 kts 340°
2026-05-08 01:50 33.92519 -84.63584 14008 ft 342 kts 339°
2026-05-08 01:50 33.94864 -84.64126 14625 ft 344 kts 339°
2026-05-08 01:51 33.97230 -84.64677 15202 ft 348 kts 339°
2026-05-08 01:51 33.99614 -84.65240 15777 ft 351 kts 338°
2026-05-08 01:51 34.02020 -84.65813 16364 ft 354 kts 338°
2026-05-08 01:51 34.04450 -84.66390 16948 ft 358 kts 338°
2026-05-08 01:52 34.06906 -84.66970 17509 ft 361 kts 338°
2026-05-08 01:52 34.09384 -84.67549 18076 ft 365 kts 338°
2026-05-08 01:52 34.11886 -84.68132 18646 ft 368 kts 339°
2026-05-08 01:52 34.14410 -84.68722 19159 ft 370 kts 338°
2026-05-08 01:53 34.16948 -84.69319 19658 ft 373 kts 338°
2026-05-08 01:53 34.19513 -84.69925 20167 ft 376 kts 338°
2026-05-08 01:53 34.22091 -84.70533 20664 ft 379 kts 338°
2026-05-08 01:53 34.24690 -84.71147 21153 ft 381 kts 336°
2026-05-08 01:54 34.27200 -84.72025 21623 ft 374 kts 329°
2026-05-08 01:54 34.29670 -84.73058 22106 ft 377 kts 329°
2026-05-08 01:54 34.32154 -84.74111 22578 ft 379 kts 329°
2026-05-08 01:54 34.34649 -84.75174 23057 ft 382 kts 329°
2026-05-08 01:55 34.37165 -84.76245 23538 ft 384 kts 329°
2026-05-08 01:55 34.39705 -84.77329 23847 ft 390 kts 329°
2026-05-08 01:55 34.42274 -84.78426 24198 ft 392 kts 329°
2026-05-08 01:55 34.44857 -84.79518 24566 ft 394 kts 328°
2026-05-08 01:56 34.47452 -84.80613 24952 ft 396 kts 328°
2026-05-08 01:56 34.50061 -84.81713 25327 ft 397 kts 328°
2026-05-08 01:56 34.52677 -84.82817 25705 ft 398 kts 328°
2026-05-08 01:56 34.55296 -84.83927 26061 ft 399 kts 328°
2026-05-08 01:57 34.57923 -84.85043 26415 ft 401 kts 328°
2026-05-08 01:57 34.60525 -84.86149 26781 ft 402 kts 328°
2026-05-08 01:57 34.63171 -84.87273 27193 ft 403 kts 327°
2026-05-08 01:57 34.65815 -84.88398 27596 ft 403 kts 327°
2026-05-08 01:58 34.68459 -84.89524 27976 ft 402 kts 327°
2026-05-08 01:58 34.71102 -84.90655 28325 ft 403 kts 327°
2026-05-08 01:58 34.73747 -84.91789 28665 ft 404 kts 326°
2026-05-08 01:58 34.76404 -84.92927 28976 ft 405 kts 326°
2026-05-08 01:59 34.79061 -84.94064 29280 ft 406 kts 326°
2026-05-08 01:59 34.81729 -84.95205 29575 ft 407 kts 326°
2026-05-08 01:59 34.84406 -84.96348 29852 ft 408 kts 326°
2026-05-08 01:59 34.87084 -84.97494 30116 ft 409 kts 326°
2026-05-08 02:00 34.89769 -84.98645 30379 ft 410 kts 325°
2026-05-08 02:00 34.92456 -84.99794 30689 ft 408 kts 325°
2026-05-08 02:00 34.95133 -85.00936 30989 ft 407 kts 325°
2026-05-08 02:00 34.97801 -85.02081 31241 ft 407 kts 325°
2026-05-08 02:01 35.00475 -85.03233 31484 ft 407 kts 324°
2026-05-08 02:01 35.03149 -85.04386 31719 ft 408 kts 324°
2026-05-08 02:01 35.05825 -85.05542 31960 ft 409 kts 324°
2026-05-08 02:01 35.08430 -85.06816 32048 ft 395 kts 319°
2026-05-08 02:02 35.10791 -85.08382 32060 ft 377 kts 312°
2026-05-08 02:02 35.12802 -85.10244 32060 ft 360 kts 304°
2026-05-08 02:02 35.14444 -85.12453 32061 ft 347 kts 297°
2026-05-08 02:02 35.15953 -85.14756 32065 ft 345 kts 297°
2026-05-08 02:03 35.18897 -85.19316 32041 ft 340 kts 296°
2026-05-08 02:03 35.21817 -85.23857 32043 ft 339 kts 296°
2026-05-08 02:04 35.24788 -85.28475 32054 ft 351 kts 297°
2026-05-08 02:04 35.27861 -85.33235 32058 ft 360 kts 297°
2026-05-08 02:05 35.30979 -85.38053 32062 ft 361 kts 297°
2026-05-08 02:05 35.34096 -85.42873 32061 ft 361 kts 297°
2026-05-08 02:06 35.37215 -85.47708 32062 ft 362 kts 297°
2026-05-08 02:06 35.40312 -85.52521 32062 ft 362 kts 297°
2026-05-08 02:07 35.43427 -85.57366 32106 ft 361 kts 297°
2026-05-08 02:07 35.46538 -85.62209 32101 ft 361 kts 297°
2026-05-08 02:08 35.49641 -85.67050 32088 ft 360 kts 297°
2026-05-08 02:08 35.52731 -85.71888 32078 ft 360 kts 297°
2026-05-08 02:09 35.55826 -85.76748 32078 ft 361 kts 297°
2026-05-08 02:09 35.58928 -85.81594 32080 ft 361 kts 297°
2026-05-08 02:10 35.62027 -85.86447 32082 ft 361 kts 297°
2026-05-08 02:10 35.65119 -85.91297 32081 ft 360 kts 297°
2026-05-08 02:11 35.68206 -85.96150 32079 ft 360 kts 297°
2026-05-08 02:11 35.71269 -86.00972 32093 ft 359 kts 297°
2026-05-08 02:12 35.74339 -86.05817 32086 ft 359 kts 297°
2026-05-08 02:12 35.77407 -86.10667 32080 ft 359 kts 297°
2026-05-08 02:13 35.80486 -86.15529 32073 ft 360 kts 297°
2026-05-08 02:13 35.83564 -86.20394 32073 ft 360 kts 297°
2026-05-08 02:14 35.86634 -86.25262 32058 ft 360 kts 297°
2026-05-08 02:14 35.89703 -86.30140 32064 ft 360 kts 297°
2026-05-08 02:15 35.92774 -86.35022 32058 ft 360 kts 297°
2026-05-08 02:15 35.95851 -86.39908 32063 ft 360 kts 297°
2026-05-08 02:16 35.98920 -86.44803 32100 ft 360 kts 297°
2026-05-08 02:16 36.01987 -86.49706 32104 ft 360 kts 297°
2026-05-08 02:17 36.05051 -86.54608 32102 ft 360 kts 297°
2026-05-08 02:17 36.08123 -86.59517 32099 ft 361 kts 297°
2026-05-08 02:18 36.11186 -86.64430 32095 ft 361 kts 297°
2026-05-08 02:18 36.14071 -86.69421 32090 ft 351 kts 289°
2026-05-08 02:19 36.16204 -86.74827 32091 ft 350 kts 288°
2026-05-08 02:19 36.18339 -86.80242 32069 ft 350 kts 288°
2026-05-08 02:20 36.20474 -86.85668 32078 ft 350 kts 288°
2026-05-08 02:20 36.22605 -86.91092 32102 ft 350 kts 288°
2026-05-08 02:21 36.24731 -86.96520 32079 ft 350 kts 288°
2026-05-08 02:21 36.26858 -87.01948 32071 ft 350 kts 288°
2026-05-08 02:22 36.28991 -87.07381 32066 ft 350 kts 288°
2026-05-08 02:22 36.31115 -87.12826 32068 ft 351 kts 288°
2026-05-08 02:23 36.33213 -87.18245 32071 ft 351 kts 288°
2026-05-08 02:23 36.35332 -87.23697 32074 ft 351 kts 288°
2026-05-08 02:24 36.37452 -87.29155 32081 ft 351 kts 288°
2026-05-08 02:24 36.39570 -87.34614 32077 ft 351 kts 288°
2026-05-08 02:25 36.41690 -87.40086 32079 ft 352 kts 288°
2026-05-08 02:25 36.43809 -87.45573 32088 ft 353 kts 288°
2026-05-08 02:26 36.45570 -87.50145 32091 ft 353 kts 288°
2026-05-08 02:26 36.47689 -87.55652 32162 ft 353 kts 288°
2026-05-08 02:27 36.49802 -87.61154 32111 ft 353 kts 288°
2026-05-08 02:27 36.51911 -87.66659 32105 ft 353 kts 288°
2026-05-08 02:28 36.54024 -87.72180 32078 ft 354 kts 288°
2026-05-08 02:28 36.56141 -87.77713 32080 ft 354 kts 288°
2026-05-08 02:29 36.58255 -87.83251 32075 ft 354 kts 288°
2026-05-08 02:29 36.60367 -87.88796 32078 ft 354 kts 288°
2026-05-08 02:30 36.62469 -87.94347 32080 ft 355 kts 288°
2026-05-08 02:30 36.64575 -87.99904 32079 ft 355 kts 288°
2026-05-08 02:31 36.66686 -88.05462 32082 ft 355 kts 288°
2026-05-08 02:31 36.68797 -88.11029 32090 ft 356 kts 288°
2026-05-08 02:32 36.70905 -88.16614 32084 ft 356 kts 288°
2026-05-08 02:32 36.73013 -88.22207 32085 ft 356 kts 288°
2026-05-08 02:33 36.75125 -88.27818 32094 ft 358 kts 288°
2026-05-08 02:33 36.77227 -88.33417 32079 ft 359 kts 288°
2026-05-08 02:34 36.79344 -88.39072 32075 ft 360 kts 288°
2026-05-08 02:34 36.81467 -88.44743 32073 ft 361 kts 288°
2026-05-08 02:35 36.83586 -88.50418 32065 ft 361 kts 288°
2026-05-08 02:35 36.85705 -88.56110 32063 ft 362 kts 288°
2026-05-08 02:36 36.87826 -88.61813 32057 ft 362 kts 288°
2026-05-08 02:36 36.89949 -88.67522 32058 ft 362 kts 288°
2026-05-08 02:37 36.92054 -88.73195 32060 ft 362 kts 288°
2026-05-08 02:37 36.94162 -88.78912 32062 ft 362 kts 288°
2026-05-08 02:38 36.96275 -88.84638 32065 ft 362 kts 288°
2026-05-08 02:38 36.98388 -88.90372 32056 ft 363 kts 288°
2026-05-08 02:39 37.00502 -88.96119 32078 ft 365 kts 288°
2026-05-08 02:39 37.02630 -89.01890 32064 ft 365 kts 288°
2026-05-08 02:40 37.04754 -89.07676 32077 ft 366 kts 288°
2026-05-08 02:40 37.06862 -89.13439 32078 ft 366 kts 288°
2026-05-08 02:41 37.08985 -89.19244 32079 ft 367 kts 288°
2026-05-08 02:41 37.11109 -89.25056 32070 ft 367 kts 288°
2026-05-08 02:42 37.13228 -89.30880 32070 ft 368 kts 288°
2026-05-08 02:42 37.14288 -89.33802 31804 ft 366 kts 288°
2026-05-08 02:42 37.15326 -89.36651 31512 ft 354 kts 288°
2026-05-08 02:43 37.16337 -89.39424 31066 ft 346 kts 288°
2026-05-08 02:43 37.17327 -89.42148 30602 ft 340 kts 288°
2026-05-08 02:43 37.18298 -89.44831 30144 ft 336 kts 288°
2026-05-08 02:43 37.19252 -89.47489 29642 ft 332 kts 288°
2026-05-08 02:44 37.20190 -89.50102 29190 ft 326 kts 289°
2026-05-08 02:44 37.21840 -89.54402 28446 ft 323 kts 296°
2026-05-08 02:44 37.25112 -89.58441 27656 ft 352 kts 319°
2026-05-08 02:44 37.29815 -89.61117 26786 ft 375 kts 327°
2026-05-08 02:45 37.34570 -89.63672 25945 ft 370 kts 327°
2026-05-08 02:45 37.39262 -89.66214 25111 ft 364 kts 327°
2026-05-08 02:45 37.43870 -89.68730 24288 ft 359 kts 327°
2026-05-08 02:45 37.48415 -89.71227 23472 ft 354 kts 327°
2026-05-08 02:46 37.52882 -89.73684 22634 ft 348 kts 328°
2026-05-08 02:46 37.57302 -89.76112 21840 ft 345 kts 328°
2026-05-08 02:46 37.61671 -89.78517 21060 ft 341 kts 329°
2026-05-08 02:46 37.66004 -89.80899 20289 ft 338 kts 329°
2026-05-08 02:47 37.70251 -89.83237 19530 ft 335 kts 329°
2026-05-08 02:47 37.74505 -89.85585 18766 ft 332 kts 330°
2026-05-08 02:47 37.78718 -89.87912 17978 ft 329 kts 330°
2026-05-08 02:47 37.82887 -89.90215 17231 ft 326 kts 330°
2026-05-08 02:48 37.87027 -89.92519 16497 ft 323 kts 331°
2026-05-08 02:48 37.91138 -89.94749 15764 ft 320 kts 332°
2026-05-08 02:48 37.95235 -89.96934 15039 ft 318 kts 332°
2026-05-08 02:48 38.01494 -90.00433 13883 ft 311 kts 332°
2026-05-08 02:49 38.09340 -90.04906 12450 ft 307 kts 332°
2026-05-08 02:49 38.17563 -90.07388 11083 ft 310 kts 351°
2026-05-08 02:49 38.22075 -90.07887 10053 ft 309 kts 351°
2026-05-08 02:49 38.24196 -90.08131 9931 ft 296 kts 351°
2026-05-08 02:50 38.26202 -90.08358 9799 ft 284 kts 351°
2026-05-08 02:50 38.28111 -90.08570 9655 ft 275 kts 352°
2026-05-08 02:50 38.30011 -90.08721 9515 ft 273 kts 353°
2026-05-08 02:50 38.33243 -90.08883 9288 ft 272 kts 354°
2026-05-08 02:51 38.37021 -90.09051 8819 ft 269 kts 354°
2026-05-08 02:51 38.40768 -90.09232 8019 ft 266 kts 353°
2026-05-08 02:51 38.44297 -90.09401 7762 ft 243 kts 353°
2026-05-08 02:51 38.47554 -90.09564 7320 ft 230 kts 353°
2026-05-08 02:52 38.50747 -90.09734 6618 ft 230 kts 352°
2026-05-08 02:52 38.53952 -90.09908 5917 ft 230 kts 352°
2026-05-08 02:52 38.57052 -90.10068 5595 ft 215 kts 352°
2026-05-08 02:52 38.59965 -90.10211 5154 ft 208 kts 352°
2026-05-08 02:53 38.62557 -90.11361 4537 ft 195 kts 310°
2026-05-08 02:53 38.63720 -90.13470 4162 ft 190 kts 297°
2026-05-08 02:53 38.64432 -90.14915 4006 ft 193 kts 297°
2026-05-08 02:53 38.65154 -90.16369 3788 ft 193 kts 298°
2026-05-08 02:54 38.65872 -90.17817 3542 ft 193 kts 297°
2026-05-08 02:54 38.66590 -90.19263 3288 ft 192 kts 297°
2026-05-08 02:54 38.67285 -90.20663 3053 ft 187 kts 297°
2026-05-08 02:54 38.67963 -90.22029 2785 ft 176 kts 297°
2026-05-08 02:55 38.68595 -90.23301 2545 ft 161 kts 296°
2026-05-08 02:55 38.69713 -90.25561 2163 ft 142 kts 295°
2026-05-08 02:55 38.70236 -90.26619 1984 ft 139 kts 295°
2026-05-08 02:56 38.70753 -90.27666 1803 ft 139 kts 295°
2026-05-08 02:56 38.71269 -90.28710 1617 ft 139 kts 296°
2026-05-08 02:56 38.71787 -90.29754 1416 ft 139 kts 297°
2026-05-08 02:56 38.72305 -90.30805 1222 ft 140 kts 298°
2026-05-08 02:57 38.72830 -90.31864 1052 ft 141 kts 300°
2026-05-08 02:57 38.73353 -90.32922 824 ft 140 kts 300°
2026-05-08 02:57 38.73871 -90.33978 631 ft 140 kts 300°
2026-05-08 02:57 38.74364 -90.34991 538 ft 116 kts 302°
2026-05-08 02:58 38.74639 -90.35542 554 ft 44 kts 301°
2026-05-08 02:58 38.74743 -90.35845 561 ft 34 kts 275°
2026-05-08 02:58 38.74755 -90.36088 554 ft 24 kts 272°
2026-05-08 02:58 38.74719 -90.36235 547 ft 19 kts 194°
2026-05-08 02:59 38.74627 -90.36361 539 ft 22 kts 249°
2026-05-08 02:59 38.74567 -90.36484 538 ft 0 kts 229°
2026-05-08 03:00 38.74189 -90.36266 551 ft 0 kts